Regional Weather Roundup
Issued by NWS

Home | Current Version | Previous Version | Graphics & Text | Print | Product List | Glossary On
Versions: 1 2 3 4 5 6 7 8 9 10 11 12 13 14 15 16 17 18 19 20 21 22 23 24 25 26 27 28 29 30 31 32 33 34 35 36 37 38 39 40 41 42 43 44 45 46 47 48 49 50
174
ASUS43 KMPX 282101
RWRMN
WEATHER ROUNDUP FOR MINNESOTA
NATIONAL WEATHER SERVICE TWIN CITIES/CHANHASSEN MN
400 PM CDT WED SEP 28 2016


NOTE: "FAIR" INDICATES FEW OR NO CLOUDS BELOW 12,000 FEET WITH NO
SIGNIFICANT WEATHER AND/OR OBSTRUCTIONS TO VISIBILITY. N/A MEANS
CURRENT SKY AND/OR WEATHER CONDITIONS ARE NOT AVAILABLE.

MNZ060>063-068>070-282200-
   Twin Cities Metro

CITY           SKY/WX    TMP DP  RH WIND       PRES   REMARKS
TWIN CITIES    CLOUDY    61  49  64 N16G23    30.23R
ST PAUL        CLOUDY    61  50  67 N14G22    30.23R
CRYSTAL        CLOUDY    61  47  59 N12       30.24R
BLAINE         CLOUDY    61  52  72 N14G21    30.24R
LAKEVILLE      CLOUDY    61  48  63 N13G21    30.22R
EDEN PRAIRIE   CLOUDY    61  49  64 N10       30.23R
LAKEVILLE      CLOUDY    61  48  63 N13G21    30.22R
SOUTH ST PAUL  CLOUDY    62  49  63 N13       30.22R
LAKE ELMO      CLOUDY    61  52  72 N10G18    30.23R
$$
MNZ001>005-007-008-013>017-022>024-027-028-282200-
   Northwest Minnesota

CITY           SKY/WX    TMP DP  RH WIND       PRES   REMARKS
BEMIDJI        CLOUDY    57  46  68 NE6       30.32R
HALLOCK        PTSUNNY   59  48  67 CALM      30.34R
ROSEAU         CLOUDY    57  50  77 CALM      30.34R
THIEF RVR FALL CLOUDY    59  48  67 NE5       30.34R
CROOKSTON      CLOUDY    61  48  63 NE3       30.34R
FOSSTON        CLOUDY    57  50  77 NE5       30.34R
DETROIT LAKES  PTSUNNY   61  46  59 E3        30.32R
MOORHEAD       PTSUNNY   63  46  55 NE3       30.31S HAZE
PARK RAPIDS    CLOUDY    60  44  55 NE8       30.31R
MAHNOMEN       MOCLDY    60  47  60 SE3       30.31S
$$
MNZ006-009>011-018-025>026-282200-
   North Central Minnesota

CITY           SKY/WX    TMP DP  RH WIND       PRES   REMARKS
BAUDETTE       CLOUDY    58  50  75 NW9       30.33R
FLAG ISLAND    CLOUDY    57  48  72 CALM      30.32S
INTL FALLS     MOSUNNY   59  47  64 N7        30.32R
WASKISH        CLOUDY    57  48  72 N5        30.33R HAZE
BIG FORK       CLOUDY    57  48  72 CALM      30.32R
GRAND RAPIDS   CLOUDY    58  46  64 N6        30.32R
ORR            CLOUDY    61  45  55 CALM      30.28S
COOK           CLOUDY    57  48  72 N3        30.31R
WALKER         CLOUDY    56  47  70 NE5       30.31R
$$
MNZ012-019>021-037-282200-
   Northeast Minnesota

CITY           SKY/WX    TMP DP  RH WIND       PRES   REMARKS
DULUTH         CLOUDY    57  50  77 CALM      30.28R
ELY            CLOUDY    55  46  71 NE5       30.30R
HIBBING        CLOUDY    57  46  66 E8        30.29R
EVELETH        CLOUDY    58  46  66 N7        30.30R
DULUTH HARBOR  CLOUDY    55  52  88 NE7       30.29R
TWO HARBORS    PTSUNNY   61  52  72 SE5       30.26R
SILVER BAY     CLOUDY    61  52  72 E5        30.26R
GRAND MARAIS     N/A     56  42  59 CALM      30.26R
G MARAIS ARPRT CLOUDY    55  45  67 N8        30.29R
$$
MNZ029>031-032-039>041-046>048-054>057-064-282200-
   West Central Minnesota

CITY           SKY/WX    TMP DP  RH WIND       PRES   REMARKS
FERGUS FALLS   MOSUNNY   61  46  59 NE5       30.32R
MORRIS         MOSUNNY   64  46  52 NE13      30.28R
ALEXANDRIA     PTSUNNY   61  47  59 N10       30.30R
ELBOW LAKE     PTSUNNY   59  47  64 NE8       30.30R
WADENA         PTSUNNY   61  46  59 NE9       30.30R
GLENWOOD       MOSUNNY   63  48  59 NE7       30.29R
BENSON         MOSUNNY   63  45  51 E6        30.28R
ORTONVILLE     MOSUNNY   63  46  55 N3        30.29S
MADISON        MOSUNNY   64  50  59 N10       30.28S
WILLMAR        FAIR      63  50  63 NE13      30.29R
$$
MNZ033>034-036-042>043-049>051-058-059-282200-
   Central Minnesota

CITY           SKY/WX    TMP DP  RH WIND       PRES   REMARKS
ST CLOUD       PTSUNNY   61  48  62 N7        30.27R
SAUK CENTRE    CLOUDY    59  47  64 NE12      30.29R
PAYNESVILLE    CLOUDY    60  46  59 NE9       30.28R
AITKIN         CLOUDY    61  45  55 N7        30.29R
PINE RIVER     CLOUDY    57  46  67 NE6       30.33R
BRAINERD       CLOUDY    58  48  69 NE9       30.30R
STAPLES        CLOUDY    59  45  58 NE6       30.30R
LONG PRAIRIE   PTSUNNY   61  46  59 N9        30.29S
LITTLE FALLS   CLOUDY    57  45  62 N3        30.30R
LITCHFIELD     PTSUNNY   63  50  63 N8        30.27R
BUFFALO        CLOUDY    60  48  64 N8        30.26S
MAPLE LAKE     CLOUDY    62  51  69 N9        30.27R
HUTCHINSON     CLOUDY    62  50  64 NE12      30.27R
$$
MNZ037-044-045-052-053-282200-
   East Central Minnesota

CITY           SKY/WX    TMP DP  RH WIND       PRES   REMARKS
PRINCETON      CLOUDY    63  50  63 N10G16    30.26R
MORA           CLOUDY    55  46  71 N6        30.29R
CAMBRIDGE      CLOUDY    61  48  63 NE7       30.25R
MOOSE LAKE     CLOUDY    57  46  67 N6        30.26R
HINCKLEY       CLOUDY    59  50  72 N10       30.27R
CLOQUET        CLOUDY    55  46  71 E3        30.28R
MCGREGOR       CLOUDY    57  46  67 NE6       30.30R
$$
MNZ071>073-080-081-089-090-097-098-282200-
   Southwest Minnesota

CITY           SKY/WX    TMP DP  RH WIND       PRES   REMARKS
MONTEVIDEO     MOSUNNY   66  46  48 NE8       30.29R
GRANITE FALLS  PTSUNNY   65  49  55 N12       30.28R
CANBY          PTSUNNY   61  48  61 N3        30.30R
MARSHALL       PTSUNNY   61  47  59 N10       30.27S
REDWOOD FALLS  CLOUDY    65  46  50 NE12      30.25R
OLIVIA         CLOUDY    63  46  55 NE8       30.26R
PIPESTONE      MOSUNNY   59  45  58 NE8       30.28R
WINDOM         PTSUNNY   63  45  51 N14       30.24S
WORTHINGTON    CLOUDY    58  47  66 N9        30.26R
JACKSON        PTSUNNY   63  43  48 NE13G21   30.24S
TRACY          PTSUNNY   63  49  59 N8        30.27R
$$
MNZ065>067-074>077-082>085-091>093-282200-
   South Central Minnesota

CITY           SKY/WX    TMP DP  RH WIND       PRES   REMARKS
MANKATO        CLOUDY    60  49  66 N12       30.24R
ST JAMES       CLOUDY    63  46  55 N12G17    30.25R
FAIRMONT       CLOUDY    61  47  59 N12G20    30.24R
GLENCOE        CLOUDY    61  52  72 N9G16     30.25R
FARIBAULT      PTSUNNY   63  50  63 N10G18    30.21R
OWATONNA       PTSUNNY   61  48  63 N15       30.20R
WASECA         PTSUNNY   63  48  59 N15       30.22S
ALBERT LEA     CLOUDY    63  48  59 N14G22    30.19R
$$
MNZ078>079-086>088-094>096-282200-
   Southeast Minnesota

CITY           SKY/WX    TMP DP  RH WIND       PRES   REMARKS
ROCHESTER      PTSUNNY   63  49  60 N16       30.18R
RED WING       CLOUDY    63  48  59 N15       30.18R
STANTON        CLOUDY    64  50  61 N13G18    30.19R
DODGE CENTER   CLOUDY    61  48  63 N17       30.19R
WINONA         PTSUNNY   66  48  52 N8        30.15R
AUSTIN         CLOUDY    61  48  63 N10G17    30.18R
PRESTON        MOSUNNY   61  48  63 N13G18    30.16R
$$
ABBREVIATIONS USED IN REMARKS
   TC - TEMPERATURES IN CELSIUS
  WCI - WIND CHILL INDEX
   HX - HEAT INDEX
  VSB - VISIBILITY
$$




USA.gov is the U.S. government's official web portal to all federal, state and local government web resources and services.